Home > Weather > Sandpoint > Past weeks

Flag for USA Weather for the Past 2 Weeks in Sandpoint, Idaho, USA

Now
75 °F

Sunny.


Feels Like: 77 °F
Forecast: 47 / 79 °F
Wind: 10 mph from Northeast

Location: Sandpoint Airport

Current Time: May 6, 2016 at 5:41:25 PM

Latest Report: May 6, 2016 at 5:15 PM


Visibility: 10 mi

Pressure: 29.98 "Hg (27.87 "Hg at 636m altitude)

Humidity: 29%

Dew Point: 41 °F

Location of SandpointLocation

Historic Weather in Sandpoint — Graph

°F

Sandpoint Temperature Yesterday

Maximum temperature yesterday: 72 °F (at 2:35 PM)
Minimum temperature yesterday: 50 °F (at 5:55 AM)
Average temperature yesterday: 61 °F

High & Low Weather Summary for the Past Weeks

 TemperatureHumidityPressure
High79 °F (May 3, 1:35 PM)100% (Apr 23, 12:55 AM)30.30 "Hg (Apr 23, 12:55 AM)
Low34 °F (Apr 25, 3:15 AM)18% (May 3, 1:35 PM)29.56 "Hg (Apr 22, 5:15 AM)
Average54 °F66%29.96 "Hg
* Reported Apr 21 8:20 PM — May 6 4:15 PM, Sandpoint, Weather by CustomWeather, © 2016

Note: Actual official high and low records may vary slightly from our data, if they occured in-between our weather recording intervals... More about our weather records

Advertising

Sandpoint Weather History for the Previous 24 Hours

Scroll right to see more
 ConditionsComfort  
Time TempWeatherWind HumidityBarometerVisibility
4:15 PM
Fri, May 6
77 °FSunny.10 mph30%29.99 "Hg10 mi
3:55 PM77 °FSunny.13 mph28%30.00 "Hg10 mi
3:15 PM75 °FSunny.12 mph29%30.02 "Hg10 mi
2:55 PM75 °FSunny.16 mph29%30.02 "Hg10 mi
2:35 PM73 °FSunny.12 mph31%30.03 "Hg10 mi
2:15 PM73 °FSunny.9 mph33%30.04 "Hg10 mi
1:55 PM73 °FSunny.16 mph33%30.04 "Hg10 mi
1:35 PM73 °FSunny.13 mph33%30.05 "Hg10 mi
1:15 PM72 °FSunny.16 mph36%30.05 "Hg10 mi
12:55 PM72 °FSunny.17 mph36%30.05 "Hg10 mi
12:35 PM70 °FSunny.15 mph38%30.06 "Hg10 mi
12:15 PM70 °FSunny.18 mph35%30.07 "Hg10 mi
11:55 AM70 °FSunny.17 mph38%30.08 "Hg10 mi
11:35 AM68 °FSunny.17 mph40%30.09 "Hg10 mi
11:15 AM68 °FSunny.21 mph40%30.09 "Hg10 mi
10:55 AM68 °FSunny.24 mph40%30.10 "Hg10 mi
10:35 AM66 °FSunny.23 mph43%30.10 "Hg7 mi
10:15 AM64 °FSunny.23 mph46%30.10 "Hg10 mi
9:55 AM64 °FScattered clouds.23 mph46%30.11 "Hg10 mi
9:35 AM64 °FScattered clouds.22 mph46%30.11 "Hg10 mi
9:15 AM64 °FSunny.17 mph46%30.11 "Hg10 mi
8:55 AM64 °FSunny.24 mph46%30.11 "Hg10 mi
8:35 AM63 °FSunny.17 mph49%30.11 "Hg10 mi
8:15 AM61 °FSunny.18 mph55%30.11 "Hg10 mi
7:55 AM61 °FSunny.21 mph55%30.10 "Hg10 mi
7:35 AM61 °FSunny.22 mph55%30.09 "Hg10 mi
7:15 AM59 °FScattered clouds.21 mph59%30.08 "Hg10 mi
6:55 AM57 °FSunny.17 mph63%30.07 "Hg10 mi
6:35 AM55 °FSunny.17 mph67%30.07 "Hg10 mi
6:15 AM55 °FClear.16 mph67%30.05 "Hg10 mi
5:55 AM55 °FClear.15 mph67%30.05 "Hg10 mi
5:35 AM55 °FClear.17 mph67%30.04 "Hg10 mi
5:15 AM55 °FClear.17 mph67%30.03 "Hg10 mi
4:55 AM57 °FClear.17 mph63%30.03 "Hg10 mi
4:15 AM57 °FPassing clouds.14 mph67%30.02 "Hg10 mi
3:55 AM57 °FPassing clouds.17 mph67%30.02 "Hg10 mi
3:35 AM57 °FPassing clouds.15 mph67%30.02 "Hg10 mi
3:15 AM59 °FOvercast.16 mph63%30.01 "Hg10 mi
2:55 AM57 °FOvercast.14 mph67%30.02 "Hg10 mi
2:35 AM57 °FPassing clouds.14 mph67%30.01 "Hg10 mi
2:15 AM57 °FPassing clouds.18 mph67%30.01 "Hg10 mi
1:55 AM59 °FPassing clouds.18 mph63%30.00 "Hg10 mi
1:35 AM59 °FPassing clouds.14 mph63%30.00 "Hg10 mi
1:15 AM59 °FClear.15 mph63%29.99 "Hg10 mi
12:55 AM57 °FClear.14 mph67%29.98 "Hg10 mi
12:35 AM59 °FClear.16 mph63%29.97 "Hg10 mi
12:15 AM59 °FClear.16 mph63%29.96 "Hg10 mi
11:55 PM
Thu, May 5
59 °FClear.14 mph63%29.94 "Hg10 mi
11:35 PM59 °FClear.16 mph63%29.94 "Hg10 mi
11:15 PM59 °FClear.17 mph63%29.94 "Hg10 mi
10:55 PM59 °FClear.8 mph63%29.96 "Hg10 mi
10:15 PM59 °FClear.12 mph68%29.95 "Hg10 mi
9:55 PM59 °FClear.8 mph68%29.95 "Hg10 mi
9:15 PM61 °FClear.13 mph63%29.93 "Hg10 mi
8:55 PM61 °FSunny.15 mph63%29.92 "Hg10 mi
8:35 PM61 °FSunny.14 mph63%29.91 "Hg10 mi
8:15 PM61 °FSunny.14 mph63%29.90 "Hg10 mi
7:55 PM61 °FSunny.13 mph63%29.90 "Hg10 mi
7:35 PM63 °FSunny.14 mph59%29.89 "Hg10 mi
7:15 PM64 °FSunny.16 mph56%29.88 "Hg10 mi
6:55 PM64 °FSunny.14 mph52%29.88 "Hg10 mi
6:35 PM68 °FSunny.10 mph49%29.88 "Hg10 mi
6:15 PM70 °FSunny.13 mph50%29.87 "Hg10 mi
5:55 PM68 °FSunny.10 mph53%29.87 "Hg10 mi
5:35 PM70 °FSunny.5 mph43%29.87 "Hg10 mi
5:15 PM70 °FSunny.3 mph40%29.87 "Hg10 mi
Weather by CustomWeather, © 2016

See weather overviewHow to use our weather pages